sat.trackr.live / text

‹ back to catalog

PRAETORIAN SDA_610

NORAD 65573 · 2025-203J

PAYLOAD ACTIVE UNKNOWN

§ Identity

Operator
Country
US
Launch date
2025-09-10
Launch site
AFWTR
Launch vehicle
Mass (kg)
RCS (m²)

Purposes: military

External: N2YO · Heavens-Above · Gunter

§ Orbital elements

Epoch: 2026-09-20T00:08:22.580160Z

Period
104.08 min
Inclination
81.2975°
Eccentricity
0.0005781
Mean motion
13.83534258 rev/d
Perigee alt
947.1 km
Apogee alt
955.6 km
Semi-major
7,329.5 km
B*
3.9728e-5
RAAN
283.0267°
Arg perigee
307.4216°
Mean anomaly
52.6414°
Rev number
5,180

§ Raw data

PRAETORIAN SDA_6101 65573U 25203J   26263.00581690  .00000056  00000+0  39728-4 0  99992 65573  81.2975 283.0267 0005781 307.4216  52.6414 13.83534258 51800

JSON: /api/v1/satellites/65573 · /tle

For live sub-satellite position, see the globe view (requires WebGL).

§ Visibility from observer

Set your observer location to see the next 7 days of passes ≥ 10°. The values pass through the URL so the page stays shareable.

No JS? Fill the form by hand. The geolocation button needs JavaScript.

§ Radio — SatNOGS DB

ModeDescriptionDownlinkUplink
FM S-band telemetry 2.226 GHz

1 transmitter · refreshed weekly from db.satnogs.org